Regional Weather Roundup
Issued by NWS

Home | Current Version | Previous Version | Text Only | Print | Product List | Glossary On
Versions: 1 2 3 4 5 6 7 8 9 10 11 12 13 14 15 16 17 18 19 20 21 22 23 24 25 26 27 28 29 30 31 32 33 34 35 36 37 38 39 40 41 42 43 44 45 46 47 48 49 50
000
ASUS43 KMKX 031121
RWRWI

WISCONSIN REGIONAL WEATHER ROUNDUP
NATIONAL WEATHER SERVICE MILWAUKEE/SULLIVAN WI
500 AM CST TUE MAR 03 2015

NOTE: "FAIR" INDICATES FEW OR NO CLOUDS BELOW 12,000 FEET WITH NO
SIGNIFICANT WEATHER AND/OR OBSTRUCTIONS TO VISIBILITY.

WIZ001-002-006>008-014>016-023>028-031200-
NORTHWEST WISCONSIN

CITY           SKY/WX    TMP DP  RH WIND       PRES   REMARKS
SUPERIOR ARPT  LGT SNOW  21  19  89 CALM      29.81F
ASHLAND        LGT SNOW  21  16  81 S8        29.83F WCI  11
HAYWARD        CLOUDY    20  13  74 S8        29.81F WCI  10
SIREN          MOCLDY    21  14  74 S8        29.81F WCI  11
CUMBERLAND     CLOUDY    19  14  79 SE6       29.80F WCI  11
RICE LAKE      CLOUDY    20  16  83 SE10      29.83F WCI   9
CHETEK         CLOUDY    20  15  81 SE5       29.83F WCI  14
LADYSMITH      CLOUDY    21  17  83 SE5       29.86F WCI  15
EAU CLAIRE     CLOUDY    22  13  68 SE6       29.84F WCI  14
MENOMONIE      CLOUDY    23  15  72 E6        29.83F WCI  15
NEW RICHMOND   CLOUDY    22  12  66 SE6       29.81F WCI  14
OSCEOLA        CLOUDY    23  14  68 SE8       29.84F WCI  13
$$

WIZ003>005-009-010-017-018-031200-
NORTH CENTRAL WISCONSIN

CITY           SKY/WX    TMP DP  RH WIND       PRES   REMARKS
MANITOWISH WTR FLURRIES  17  14  88 SE6       29.82F WCI   8
ARBOR VITAE    FLURRIES  19  15  83 S5        29.84F WCI  12
WOODRUFF       FLURRIES  19  15  83 S5        29.84F WCI  12
RHINELANDER    CLOUDY    18  14  84 SE3       29.86F
EAGLE RIVER    FLURRIES  18  13  79 CALM      29.84F
LAND O LAKES   FLURRIES  18  14  84 S5        29.84F WCI  11
PHILLIPS       CLOUDY    18  15  86 SE3       29.83F
TOMAHAWK       CLOUDY    19  15  84 CALM      29.86F
MEDFORD        CLOUDY    19  14  81 SE7       29.84F WCI  10
MERRILL        CLOUDY    20  16  84 SE5       29.87F WCI  13
$$

WIZ029-030-035-036-043>047-031200-
CENTRAL WISCONSIN

CITY           SKY/WX    TMP DP  RH WIND       PRES   REMARKS
WAUSAU         CLOUDY    20  15  81 SE7       29.87F WCI  11
MOSINEE        CLOUDY    21  18  86 SE7       29.89F WCI  13
MARSHFIELD     CLOUDY    22  14  71 SE8       29.87F WCI  12
STEVENS POINT  CLOUDY    20  14  78 SE8       29.91F WCI  10
WAUPACA        CLOUDY    25  17  72 SE8       29.95F WCI  16
WAUTOMA        CLOUDY    23  16  75 SE7       29.94F WCI  15
WISC RAPIDS    CLOUDY    22  13  68 SE7       29.91F WCI  13
CAMP DOUGLAS   CLOUDY    23  19  84 SE9       29.88F WCI  13
$$

WIZ011>013-019>022-031-037>040-048>050-031200-
NORTHEAST WISCONSIN

CITY           SKY/WX    TMP DP  RH WIND       PRES   REMARKS
ANTIGO         CLOUDY    18  16  91 SE10      29.88F WCI   6
SHAWANO        CLOUDY    24  20  84 S3        29.96F
OCONTO         CLOUDY    22  21  96 S5        29.98F WCI  16
STURGEON BAY   CLOUDY    23  19  86 S7        29.99F WCI  15
GREEN BAY      CLOUDY    23  19  85 SE9       29.98F WCI  13
MANITOWOC      CLOUDY    28  23  81 S13       29.99F WCI  17
APPLETON       NOT AVBL
CLINTONVILLE   CLOUDY    23  19  86 S7        29.95F WCI  15
OSHKOSH        CLOUDY    24  16  71 SE7       29.96F WCI  16
$$

WIZ032>034-041-042-053>061-031200-
SOUTHWEST WISCONSIN

CITY           SKY/WX    TMP DP  RH WIND       PRES   REMARKS
LA CROSSE      LGT SNOW  25  17  72 SE8       29.86F WCI  16
SPARTA         CLOUDY    24  16  70 SE7       29.87F WCI  16
VIROQUA        CLOUDY    23  17  79 SE10      29.83F WCI  12
BOSCOBEL       CLOUDY    26  17  68 VRB5      29.89F WCI  20
PRAIRIE DU CHI MIX PCPN  25  19  80 SE6       29.87F WCI  18
PLATTEVILLE    CLOUDY    24  21  91 E10       29.87F WCI  13
$$

WIZ056-057-062-063-064-067-068-031200-
SOUTH CENTRAL WISCONSIN

CITY           SKY/WX    TMP DP  RH WIND       PRES   REMARKS
REEDSBURG      CLOUDY    24  15  70 SE7       29.90F WCI  15
BARABOO/DELLS  CLOUDY    24  15  69 SE14      29.89F WCI  11
LONE ROCK      CLOUDY    25  16  68 SE10      29.91F WCI  15
MINERAL POINT  LGT SNOW  25  21  86 SE15      29.86F WCI  12
MADISON        CLOUDY    24  16  71 SE12      29.94F WCI  13
MIDDLETON      CLOUDY    26  17  68 S13       29.93F WCI  15
WATERTOWN      CLOUDY    25  16  69 SE9       29.95F WCI  15
MONROE         LGT SNOW  23  23 100 SE13      29.92F WCI  11
JANESVILLE     LGT SNOW  27  21  80 SE12      29.97F VSB 1   WCI  16
$$

WIZ051-052-058>065-066-070>072-031200-
SOUTHEAST WISCONSIN

CITY           SKY/WX    TMP DP  RH WIND       PRES   REMARKS
MILWAUKEE      LGT SNOW  27  19  72 SE14      30.01F WCI  16
WAUKESHA       CLOUDY    25  16  68 SE9       30.00F WCI  15
MILWAUKEE/TIMM CLOUDY    28  18  64 S9        30.02F WCI  20
RACINE         LGT SNOW  27  20  75 SE14      30.01F WCI  16
BURLINGTON     LGT SNOW  23  17  77 SE12      29.98F WCI  12
KENOSHA        LGT SNOW  25  22  88 S14       29.98F VSB 3/4 WCI  13
FOND DU LAC    CLOUDY    25  15  66 SE13      29.97F WCI  14
SHEBOYGAN      CLOUDY    27  20  75 S8        30.00F WCI  19
WEST BEND      CLOUDY    27  16  63 SE7       29.98F WCI  19
JUNEAU         CLOUDY    24  15  70 SE12      29.96F WCI  13
$$

LSZ147-162-031200-
LAKE SUPERIOR

STATION/POSITION TIME  TEMP    WIND        PRES    WAVE
                       AIR SEA DIR/SP/G            HT/PER
                 (UTC) (F)     (DEG/KT/KT) (MB)    (FT/S)
DEVILS ISLAND    1100   22     200/  8/ 12 1011.0F
PORT WING        1020   21     170/ 10/ 22 1010.5F
SAXON HARBOR     1020   22     180/  2/ 15 1011.9F
$$

LMZ867-665-643>646-031200-
LAKE MICHIGAN

STATION/POSITION TIME  TEMP    WIND        PRES    WAVE
                       AIR SEA DIR/SP/G            HT/PER
                 (UTC) (F)     (DEG/KT/KT) (MB)    (FT/S)
NORTHPORT PIER   1104   24     160/  2/  9 1015.9F
SISTER BAY       1013   22     180/  9/ 11   N/A
KEWAUNEE LAKESHO 1000          190/  7/  9 1016.5F
SHEBOYGAN LAKESH 1100   29     170/ 21/ 22 1016.9F
PORT WASHINGTON  1040   29     170/ 17/ 20 1017.3F
MILWAUKEE LAKESH 1000   29     160/ 16/ 19   N/A
KENOSHA   LAKESH 1100   28     170/ 23/ 29 1016.3F
$$

TC  - TEMPERATURE IN CELSIUS
VSB - VISIBILITY IN STATUTE MILES
WCI - WIND CHILL INDEX
HX  - HEAT INDEX



USA.gov is the U.S. government's official web portal to all federal, state and local government web resources and services.